Location: Austin
(30.3000°N, 97.7500°W)
Time: 06:09:02
(UTC-06:00)

Cosmos 1092 Rocket - Pass Details

Date: 03 March 2026
Orbit: 955 x 993 km, 82.9° (Epoch: 6 March)

Event Time Altitude Azimuth Distance (km) Brightness Sun altitude
Rises 19:57:10 0° 180° (S) 3,652 7.0 -19.3°
Reaches altitude 10° 19:59:39 10° 179° (S) 2,714 6.3 -19.8°
Maximum altitude 20:05:52 79° 93° (E) 1,003 3.9 -21.2°
Drops below altitude 10° 20:12:11 10° 8° (N) 2,751 6.3 -22.5°
Sets 20:14:43 0° 8° (N) 3,706 7.0 -23.1°
